This is the latest recevied weather packets stored in our database for station/object DJ2RF. If no packets are shown the sender has not sent any weather packets the latest 10 day(s).
| Time | Temp. | Humidity | Pressure | Rain* | Wind** | Luminosity | Snow |
|---|---|---|---|---|---|---|---|
| 1777722406 | 22.78° C | 38% | 1022.4 hPa | 0 mm | - | - | - |
| 1777721839 | 22.78° C | 39% | 1022.5 hPa | 0 mm | - | - | - |
| 1777721273 | 22.22° C | 39% | 1022.7 hPa | 0 mm | - | - | - |
| 1777720743 | 21.67° C | 38% | 1022.8 hPa | 0 mm | - | - | - |
| 1777720179 | 21.67° C | 39% | 1023 hPa | 0 mm | - | - | - |
| 1777719628 | 21.67° C | 39% | 1022.9 hPa | 0 mm | - | - | - |
| 1777719067 | 21.11° C | 40% | 1023.1 hPa | 0 mm | - | - | - |
| 1777718526 | 20.56° C | 42% | 1023.1 hPa | 0 mm | - | - | - |
| 1777717927 | 20.56° C | 40% | 1023.4 hPa | 0 mm | - | - | - |
| 1777717351 | 20.56° C | 44% | 1023.4 hPa | 0 mm | - | - | - |
| 1777716821 | 20° C | 41% | 1023.4 hPa | 0 mm | - | - | - |
| 1777716261 | 20° C | 46% | 1023.6 hPa | 0 mm | - | - | - |
| 1777715712 | 20° C | 47% | 1023.7 hPa | 0 mm | - | - | - |
| 1777714621 | 18.89° C | 49% | 1023.9 hPa | 0 mm | - | - | - |
| 1777714141 | 18.33° C | 52% | 1024 hPa | 0 mm | - | - | - |
| 1777713588 | 17.78° C | 53% | 1024 hPa | 0 mm | - | - | - |
| 1777713101 | 17.22° C | 54% | 1024 hPa | 0 mm | - | - | - |
| 1777712546 | 17.22° C | 53% | 1024.1 hPa | 0 mm | - | - | - |
| 1777712022 | 16.67° C | 55% | 1024.3 hPa | 0 mm | - | - | - |
| 1777711428 | 16.11° C | 55% | 1024.3 hPa | 0 mm | - | - | - |
| 1777710881 | 15.56° C | 60% | 1024.3 hPa | 0 mm | - | - | - |
| 1777710396 | 15° C | 59% | 1024.4 hPa | 0 mm | - | - | - |
| 1777709816 | 14.44° C | 61% | 1024.5 hPa | 0 mm | - | - | - |
| 1777709266 | 13.89° C | 63% | 1024.5 hPa | 0 mm | - | - | - |
| 1777708736 | 13.33° C | 63% | 1024.6 hPa | 0 mm | - | - | - |
* Rain latest hour (hover to see other rain measurements)
** Current wind speed in m/s (hover to see current wind gust speed)